Overview Statistics Trail Chart Weather Telemetry Raw packets
 

This is the latest recevied weather packets stored in our database for station/object KI6SYE. If no packets are shown the sender has not sent any weather packets the latest 10 day(s).

<< 14 15 16 17 18 19 20 >>
Time Temp. Humidity Pressure Rain* Wind** Luminosity Snow
1788578581 21.11° C 86% 1012 hPa 0 mm - 0 W/m² -
1788578276 20.56° C 86% 1012.1 hPa 0 mm - 0 W/m² -
1788577972 20.56° C 86% 1012 hPa 0 mm - 0 W/m² -
1788577666 20.56° C 86% 1012.2 hPa 0 mm - 0 W/m² -
1788577362 20.56° C 86% 1011.9 hPa 0 mm - 0 W/m² -
1788577056 20.56° C 86% 1011.7 hPa 0 mm - 0 W/m² -
1788576752 21.11° C 86% 1012 hPa 0 mm - 0 W/m² -
1788576447 21.11° C 85% 1012 hPa 0 mm - 0 W/m² -
1788576143 21.11° C 85% 1011.8 hPa 0 mm - 0 W/m² -
1788575843 21.11° C 85% 1012 hPa 0 mm - 0 W/m² -
1788575538 21.11° C 85% 1011.8 hPa 0 mm - 0 W/m² -
1788575238 21.11° C 85% 1011.8 hPa 0 mm - 1 W/m² -
1788574934 21.11° C 84% 1011.9 hPa 0 mm - 1 W/m² -
1788574632 21.11° C 84% 1012 hPa 0 mm - 3 W/m² -
1788574328 21.11° C 84% 1011.8 hPa 0 mm - 5 W/m² -
1788574022 21.11° C 84% 1012 hPa 0 mm - 8 W/m² -
1788573718 21.67° C 83% 1011.9 hPa 0 mm - 11 W/m² -
1788573417 21.67° C 83% 1011.8 hPa 0 mm - 14 W/m² -
1788573111 21.67° C 82% 1011.9 hPa 0 mm - 18 W/m² -
1788572805 21.67° C 82% 1012.1 hPa 0 mm - 24 W/m² -
1788572500 21.67° C 81% 1012.2 hPa 0 mm - 28 W/m² -
1788572197 21.67° C 81% 1011.9 hPa 0 mm - 33 W/m² -
1788571892 22.22° C 81% 1012 hPa 0 mm - 39 W/m² -
1788571592 22.22° C 80% 1012.1 hPa 0 mm - 45 W/m² -
1788571289 22.22° C 80% 1012.2 hPa 0 mm - 40 W/m² -

* Rain latest hour (hover to see other rain measurements)
** Current wind speed in m/s (hover to see current wind gust speed)